Weather in Eskisehir

Turkey     39°46′50″N   30°30′40″E
temp.,
°C
wind,
m/s
gust,
m/s
humid.,
%
clouds,
%
prec.,
mm/h
press.,
hPa
HPBL,
m
29 july, thu
thu2900:00+18wnw22560 0.0 101615
03:00+17wnw11610 0.0 101611
06:00+16wsw11640 0.0 101511
09:00+22se11440 0.0 1015501
12:00+27e14300 0.0 10131512
15:00+30n56230 0.0 10112167
18:00+29nnw88250 0.0 10101300
21:00+22nnw46380 0.0 1012101
30 july, fri
fri3000:00+19wnw22450 0.0 101320
03:00+18wnw22480 0.0 101314
06:00+17w11500 0.0 101311
09:00+23nw12350 0.0 1012355
12:00+30n57220 0.0 10111618
15:00+33nnw77180 0.0 10082925
18:00+31n88220 0.0 10082298
21:00+23nnw47400 0.0 1011116
31 july, sat
sat3100:00+20nw22470 0.0 101212
03:00+19wsw11510 0.0 101211
06:00+18w11510 0.0 101111
09:00+25nw22340 0.0 1011353
12:00+30n69240 0.0 10102008
15:00+32n98200 0.0 10082673
18:00+30n88220 0.0 10091473
21:00+22nw35370 0.0 101057
1 august, sun
sun100:00+20wnw22430 0.0 101118
03:00+18w11430 0.0 101111
06:00+17w22420 0.0 101211
09:00+24nw12280 0.0 1011361
12:00+30n57180 0.0 10101528
15:00+32nnw89190 0.0 10092150
18:00+30n78200 0.0 10091258
21:00+22nw46350 0.0 101184
2 august, mon
mon200:00+20wnw33440 0.0 101228
03:00+18w22500 0.0 101214
06:00+16wnw11530 0.0 101211
09:00+23wnw11320 0.0 1012318
12:00+29nw12160 0.0 10101283
15:00+33nnw55120 0.0 10091787
18:00+32nnw56140 0.0 10081567
21:00+25nw22290 0.0 100912